Year,Month,Day,Hour,Minute,Value (Times are PST for temperature in C)
2010,08,16,00,00,21.80
2010,08,16,00,01,21.80
2010,08,16,00,02,21.80
2010,08,16,00,03,21.80
2010,08,16,00,04,21.80
2010,08,16,00,05,21.80
2010,08,16,00,06,21.80
2010,08,16,00,07,21.80
2010,08,16,00,08,21.80
2010,08,16,00,09,21.80
2010,08,16,00,10,21.80
2010,08,16,00,11,21.80
2010,08,16,00,12,21.80
2010,08,16,00,13,21.80
2010,08,16,00,14,21.70
2010,08,16,00,15,21.70
2010,08,16,00,16,21.70
2010,08,16,00,17,21.70
2010,08,16,00,18,21.70
2010,08,16,00,19,21.60
2010,08,16,00,20,21.60
2010,08,16,00,21,21.60
2010,08,16,00,22,21.60
2010,08,16,00,23,21.60
2010,08,16,00,24,21.60
2010,08,16,00,25,21.60
2010,08,16,00,26,21.60
2010,08,16,00,27,21.60
2010,08,16,00,28,21.60
2010,08,16,00,29,21.60
2010,08,16,00,30,21.60
2010,08,16,00,31,21.60
2010,08,16,00,32,21.60
2010,08,16,00,33,21.60
2010,08,16,00,34,21.60
2010,08,16,00,35,21.60
2010,08,16,00,36,21.60
2010,08,16,00,37,21.60
2010,08,16,00,38,21.50
2010,08,16,00,39,21.50
2010,08,16,00,40,21.50
2010,08,16,00,41,21.50
2010,08,16,00,42,21.40
2010,08,16,00,43,21.40
2010,08,16,00,44,21.40
2010,08,16,00,45,21.40
2010,08,16,00,46,21.40
2010,08,16,00,47,21.40
2010,08,16,00,48,21.40
2010,08,16,00,49,21.40
2010,08,16,00,50,21.40
2010,08,16,00,51,21.40
2010,08,16,00,52,21.40
2010,08,16,00,53,21.50
2010,08,16,00,54,21.50
2010,08,16,00,55,21.50
2010,08,16,00,56,21.40
2010,08,16,00,57,21.40
2010,08,16,00,58,21.40
2010,08,16,00,59,21.40
2010,08,16,01,00,21.40
2010,08,16,01,01,21.40
2010,08,16,01,02,21.30
2010,08,16,01,03,21.30
2010,08,16,01,04,21.20
2010,08,16,01,05,21.10
2010,08,16,01,06,21.10
2010,08,16,01,07,21.00
2010,08,16,01,08,20.90
2010,08,16,01,09,20.80
2010,08,16,01,10,20.80
2010,08,16,01,11,20.70
2010,08,16,01,12,20.70
2010,08,16,01,13,20.60
2010,08,16,01,14,20.60
2010,08,16,01,15,20.60
2010,08,16,01,16,20.50
2010,08,16,01,17,20.50
2010,08,16,01,18,20.40
2010,08,16,01,19,20.40
2010,08,16,01,20,20.30
2010,08,16,01,21,20.30
2010,08,16,01,22,20.30
2010,08,16,01,23,20.20
2010,08,16,01,24,20.20
2010,08,16,01,25,20.20
2010,08,16,01,26,20.10
2010,08,16,01,27,20.10
2010,08,16,01,28,20.10
2010,08,16,01,29,20.10
2010,08,16,01,30,20.10
2010,08,16,01,31,20.10
2010,08,16,01,32,20.10
2010,08,16,01,33,20.10
2010,08,16,01,34,20.10
2010,08,16,01,35,20.10
2010,08,16,01,36,20.10
2010,08,16,01,37,20.10
2010,08,16,01,38,20.10
2010,08,16,01,39,20.00
2010,08,16,01,40,20.00
2010,08,16,01,41,20.00
2010,08,16,01,42,20.00
2010,08,16,01,43,20.00
2010,08,16,01,44,19.90
2010,08,16,01,45,19.90
2010,08,16,01,46,19.90
2010,08,16,01,47,19.90
2010,08,16,01,48,19.90
2010,08,16,01,49,19.90
2010,08,16,01,50,19.90
2010,08,16,01,51,19.90
2010,08,16,01,52,19.90
2010,08,16,01,53,19.90
2010,08,16,01,54,19.90
2010,08,16,01,55,20.00
2010,08,16,01,56,20.00
2010,08,16,01,57,20.00
2010,08,16,01,58,20.00
2010,08,16,01,59,20.00
2010,08,16,02,00,20.00
2010,08,16,02,01,20.00
2010,08,16,02,02,20.10
2010,08,16,02,03,20.10
2010,08,16,02,04,20.10
2010,08,16,02,05,20.10
2010,08,16,02,06,20.10
2010,08,16,02,07,20.10
2010,08,16,02,08,20.10
2010,08,16,02,09,20.10
2010,08,16,02,10,20.10
2010,08,16,02,11,20.10
2010,08,16,02,12,20.20
2010,08,16,02,13,20.20
2010,08,16,02,14,20.20
2010,08,16,02,15,20.20
2010,08,16,02,16,20.20
2010,08,16,02,17,20.20
2010,08,16,02,18,20.10
2010,08,16,02,19,20.10
2010,08,16,02,20,20.10
2010,08,16,02,21,20.00
2010,08,16,02,22,20.00
2010,08,16,02,23,20.00
2010,08,16,02,24,20.00
2010,08,16,02,25,19.90
2010,08,16,02,26,19.90
2010,08,16,02,27,19.90
2010,08,16,02,28,20.00
2010,08,16,02,29,20.00
2010,08,16,02,30,20.00
2010,08,16,02,31,19.90
2010,08,16,02,32,19.90
2010,08,16,02,33,19.90
2010,08,16,02,34,19.90
2010,08,16,02,35,19.90
2010,08,16,02,36,19.90
2010,08,16,02,37,19.80
2010,08,16,02,38,19.80
2010,08,16,02,39,19.80
2010,08,16,02,40,19.70
2010,08,16,02,41,19.70
2010,08,16,02,42,19.70
2010,08,16,02,43,19.70
2010,08,16,02,44,19.60
2010,08,16,02,45,19.60
2010,08,16,02,46,19.50
2010,08,16,02,47,19.40
2010,08,16,02,48,19.40
2010,08,16,02,49,19.40
2010,08,16,02,50,19.30
2010,08,16,02,51,19.30
2010,08,16,02,52,19.30
2010,08,16,02,53,19.20
2010,08,16,02,54,19.20
2010,08,16,02,55,19.20
2010,08,16,02,56,19.20
2010,08,16,02,57,19.10
2010,08,16,02,58,19.10
2010,08,16,02,59,19.10
2010,08,16,03,00,19.00
2010,08,16,03,01,19.00
2010,08,16,03,02,19.00
2010,08,16,03,03,19.00
2010,08,16,03,04,18.90
2010,08,16,03,05,18.90
2010,08,16,03,06,18.90
2010,08,16,03,07,18.90
2010,08,16,03,08,18.90
2010,08,16,03,09,18.90
2010,08,16,03,10,18.90
2010,08,16,03,11,18.80
2010,08,16,03,12,18.80
2010,08,16,03,13,18.80
2010,08,16,03,14,18.80
2010,08,16,03,15,18.80
2010,08,16,03,16,18.80
2010,08,16,03,17,18.80
2010,08,16,03,18,18.80
2010,08,16,03,19,18.80
2010,08,16,03,20,18.80
2010,08,16,03,21,18.80
2010,08,16,03,22,18.80
2010,08,16,03,23,18.80
2010,08,16,03,24,18.80
2010,08,16,03,25,18.80
2010,08,16,03,26,18.80
2010,08,16,03,27,18.80
2010,08,16,03,28,18.80
2010,08,16,03,29,18.80
2010,08,16,03,30,18.80
2010,08,16,03,31,18.80
2010,08,16,03,32,18.80
2010,08,16,03,33,18.80
2010,08,16,03,34,18.80
2010,08,16,03,35,18.80
2010,08,16,03,36,18.80
2010,08,16,03,37,18.80
2010,08,16,03,38,18.80
2010,08,16,03,39,18.80
2010,08,16,03,40,18.80
2010,08,16,03,41,18.80
2010,08,16,03,42,18.80
2010,08,16,03,43,18.80
2010,08,16,03,44,18.80
2010,08,16,03,45,18.70
2010,08,16,03,46,18.70
2010,08,16,03,47,18.70
2010,08,16,03,48,18.70
2010,08,16,03,49,18.70
2010,08,16,03,50,18.70
2010,08,16,03,51,18.60
2010,08,16,03,52,18.60
2010,08,16,03,53,18.60
2010,08,16,03,54,18.60
2010,08,16,03,55,18.60
2010,08,16,03,56,18.60
2010,08,16,03,57,18.60
2010,08,16,03,58,18.50
2010,08,16,03,59,18.50
2010,08,16,04,00,18.50
2010,08,16,04,01,18.50
2010,08,16,04,02,18.50
2010,08,16,04,03,18.40
2010,08,16,04,04,18.40
2010,08,16,04,05,18.40
2010,08,16,04,06,18.40
2010,08,16,04,07,18.30
2010,08,16,04,08,18.30
2010,08,16,04,09,18.30
2010,08,16,04,10,18.30
2010,08,16,04,11,18.30
2010,08,16,04,12,18.30
2010,08,16,04,13,18.30
2010,08,16,04,14,18.20
2010,08,16,04,15,18.20
2010,08,16,04,16,18.20
2010,08,16,04,17,18.20
2010,08,16,04,18,18.20
2010,08,16,04,19,18.10
2010,08,16,04,20,18.10
2010,08,16,04,21,18.10
2010,08,16,04,22,18.10
2010,08,16,04,23,18.10
2010,08,16,04,24,18.00
2010,08,16,04,25,18.00
2010,08,16,04,26,18.00
2010,08,16,04,27,18.00
2010,08,16,04,28,18.00
2010,08,16,04,29,18.00
2010,08,16,04,30,18.00
2010,08,16,04,31,18.00
2010,08,16,04,32,18.10
2010,08,16,04,33,18.10
2010,08,16,04,34,18.10
2010,08,16,04,35,18.00
2010,08,16,04,36,18.00
2010,08,16,04,37,18.00
2010,08,16,04,38,17.90
2010,08,16,04,39,17.90
2010,08,16,04,40,17.90
2010,08,16,04,41,17.80
2010,08,16,04,42,17.80
2010,08,16,04,43,17.70
2010,08,16,04,44,17.70
2010,08,16,04,45,17.70
2010,08,16,04,46,17.70
2010,08,16,04,47,17.60
2010,08,16,04,48,17.60
2010,08,16,04,49,17.60
2010,08,16,04,50,17.60
2010,08,16,04,51,17.60
2010,08,16,04,52,17.60
2010,08,16,04,53,17.60
2010,08,16,04,54,17.60
2010,08,16,04,55,17.60
2010,08,16,04,56,17.70
2010,08,16,04,57,17.70
2010,08,16,04,58,17.70
2010,08,16,04,59,17.70
2010,08,16,05,00,17.70
2010,08,16,05,01,17.70
2010,08,16,05,02,17.70
2010,08,16,05,03,17.70
2010,08,16,05,04,17.70
2010,08,16,05,05,17.70
2010,08,16,05,06,17.70
2010,08,16,05,07,17.70
2010,08,16,05,08,17.70
2010,08,16,05,09,17.70
2010,08,16,05,10,17.60
2010,08,16,05,11,17.60
2010,08,16,05,12,17.50
2010,08,16,05,13,17.50
2010,08,16,05,14,17.40
2010,08,16,05,15,17.40
2010,08,16,05,16,17.40
2010,08,16,05,17,17.30
2010,08,16,05,18,17.30
2010,08,16,05,19,17.30
2010,08,16,05,20,17.30
2010,08,16,05,21,17.30
2010,08,16,05,22,17.30
2010,08,16,05,23,17.30
2010,08,16,05,24,17.30
2010,08,16,05,25,17.30
2010,08,16,05,26,17.30
2010,08,16,05,27,17.30
2010,08,16,05,28,17.30
2010,08,16,05,29,17.30
2010,08,16,05,30,17.40
2010,08,16,05,31,17.40
2010,08,16,05,32,17.40
2010,08,16,05,33,17.40
2010,08,16,05,34,17.40
2010,08,16,05,35,17.40
2010,08,16,05,36,17.40
2010,08,16,05,37,17.40
2010,08,16,05,38,17.40
2010,08,16,05,39,17.40
2010,08,16,05,40,17.30
2010,08,16,05,41,17.30
2010,08,16,05,42,17.30
2010,08,16,05,43,17.30
2010,08,16,05,44,17.30
2010,08,16,05,45,17.30
2010,08,16,05,46,17.20
2010,08,16,05,47,17.20
2010,08,16,05,48,17.20
2010,08,16,05,49,17.20
2010,08,16,05,50,17.20
2010,08,16,05,51,17.20
2010,08,16,05,52,17.20
2010,08,16,05,53,17.10
2010,08,16,05,54,17.10
2010,08,16,05,55,17.10
2010,08,16,05,56,17.10
2010,08,16,05,57,17.10
2010,08,16,05,58,17.10
2010,08,16,05,59,17.00
2010,08,16,06,00,17.00
2010,08,16,06,01,17.00
2010,08,16,06,02,17.00
2010,08,16,06,03,17.00
2010,08,16,06,04,17.00
2010,08,16,06,05,17.00
2010,08,16,06,06,17.10
2010,08,16,06,07,17.10
2010,08,16,06,08,17.10
2010,08,16,06,09,17.10
2010,08,16,06,10,17.10
2010,08,16,06,11,17.10
2010,08,16,06,12,17.00
2010,08,16,06,13,17.00
2010,08,16,06,14,17.10
2010,08,16,06,15,17.10
2010,08,16,06,16,17.10
2010,08,16,06,17,17.10
2010,08,16,06,18,17.10
2010,08,16,06,19,17.10
2010,08,16,06,20,17.10
2010,08,16,06,21,17.10
2010,08,16,06,22,17.10
2010,08,16,06,23,17.10
2010,08,16,06,24,17.10
2010,08,16,06,25,17.10
2010,08,16,06,26,17.10
2010,08,16,06,27,17.10
2010,08,16,06,28,17.10
2010,08,16,06,29,17.10
2010,08,16,06,30,17.10
2010,08,16,06,31,17.10
2010,08,16,06,32,17.10
2010,08,16,06,33,17.10
2010,08,16,06,34,17.10
2010,08,16,06,35,17.10
2010,08,16,06,36,17.10
2010,08,16,06,37,17.10
2010,08,16,06,38,17.10
2010,08,16,06,39,17.10
2010,08,16,06,40,17.10
2010,08,16,06,41,17.10
2010,08,16,06,42,17.10
2010,08,16,06,43,17.10
2010,08,16,06,44,17.20
2010,08,16,06,45,17.20
2010,08,16,06,46,17.20
2010,08,16,06,47,17.20
2010,08,16,06,48,17.20
2010,08,16,06,49,17.20
2010,08,16,06,50,17.20
2010,08,16,06,51,17.20
2010,08,16,06,52,17.20
2010,08,16,06,53,17.20
2010,08,16,06,54,17.20
2010,08,16,06,55,17.20
2010,08,16,06,56,17.20
2010,08,16,06,57,17.20
2010,08,16,06,58,17.20
2010,08,16,06,59,17.20
2010,08,16,07,00,17.20
2010,08,16,07,01,17.20
2010,08,16,07,02,17.20
2010,08,16,07,03,17.20
2010,08,16,07,04,17.20
2010,08,16,07,05,17.20
2010,08,16,07,06,17.20
2010,08,16,07,07,17.20
2010,08,16,07,08,17.20
2010,08,16,07,09,17.20
2010,08,16,07,10,17.20
2010,08,16,07,11,17.20
2010,08,16,07,12,17.20
2010,08,16,07,13,17.20
2010,08,16,07,14,17.20
2010,08,16,07,15,17.30
2010,08,16,07,16,17.30
2010,08,16,07,17,17.30
2010,08,16,07,18,17.30
2010,08,16,07,19,17.30
2010,08,16,07,20,17.30
2010,08,16,07,21,17.30
2010,08,16,07,22,17.40
2010,08,16,07,23,17.40
2010,08,16,07,24,17.40
2010,08,16,07,25,17.40
2010,08,16,07,26,17.40
2010,08,16,07,27,17.50
2010,08,16,07,28,17.50
2010,08,16,07,29,17.50
2010,08,16,07,30,17.50
2010,08,16,07,31,17.60
2010,08,16,07,32,17.60
2010,08,16,07,33,17.60
2010,08,16,07,34,17.60
2010,08,16,07,35,17.60
2010,08,16,07,36,17.70
2010,08,16,07,37,17.70
2010,08,16,07,38,17.70
2010,08,16,07,39,17.70
2010,08,16,07,40,17.70
2010,08,16,07,41,17.80
2010,08,16,07,42,17.80
2010,08,16,07,43,17.80
2010,08,16,07,44,17.90
2010,08,16,07,45,17.90
2010,08,16,07,46,17.90
2010,08,16,07,47,18.00
2010,08,16,07,48,18.00
2010,08,16,07,49,18.00
2010,08,16,07,50,18.10
2010,08,16,07,51,18.10
2010,08,16,07,52,18.10
2010,08,16,07,53,18.20
2010,08,16,07,54,18.20
2010,08,16,07,55,18.20
2010,08,16,07,56,18.30
2010,08,16,07,57,18.30
2010,08,16,07,58,18.30
2010,08,16,07,59,18.30
2010,08,16,08,00,18.40
2010,08,16,08,01,18.40
2010,08,16,08,02,18.50
2010,08,16,08,03,18.50
2010,08,16,08,04,18.50
2010,08,16,08,05,18.60
2010,08,16,08,06,18.60
2010,08,16,08,07,18.70
2010,08,16,08,08,18.70
2010,08,16,08,09,18.70
2010,08,16,08,10,18.80
2010,08,16,08,11,18.80
2010,08,16,08,12,18.80
2010,08,16,08,13,18.80
2010,08,16,08,14,18.90
2010,08,16,08,15,18.90
2010,08,16,08,16,18.90
2010,08,16,08,17,19.00
2010,08,16,08,18,19.00
2010,08,16,08,19,19.10
2010,08,16,08,20,19.10
2010,08,16,08,21,19.10
2010,08,16,08,22,19.10
2010,08,16,08,23,19.10
2010,08,16,08,24,19.20
2010,08,16,08,25,19.20
2010,08,16,08,26,19.20
2010,08,16,08,27,19.30
2010,08,16,08,28,19.30
2010,08,16,08,29,19.30
2010,08,16,08,30,19.40
2010,08,16,08,31,19.40
2010,08,16,08,32,19.40
2010,08,16,08,33,19.50
2010,08,16,08,34,19.60
2010,08,16,08,35,19.60
2010,08,16,08,36,19.60
2010,08,16,08,37,19.70
2010,08,16,08,38,19.70
2010,08,16,08,39,19.80
2010,08,16,08,40,19.80
2010,08,16,08,41,19.90
2010,08,16,08,42,19.90
2010,08,16,08,43,20.00
2010,08,16,08,44,20.10
2010,08,16,08,45,20.10
2010,08,16,08,46,20.20
2010,08,16,08,47,20.20
2010,08,16,08,48,20.20
2010,08,16,08,49,20.30
2010,08,16,08,50,20.30
2010,08,16,08,51,20.40
2010,08,16,08,52,20.50
2010,08,16,08,53,20.50
2010,08,16,08,54,20.60
2010,08,16,08,55,20.60
2010,08,16,08,56,20.70
2010,08,16,08,57,20.70
2010,08,16,08,58,20.80
2010,08,16,08,59,20.80
2010,08,16,09,00,20.90
2010,08,16,09,01,21.00
2010,08,16,09,02,21.00
2010,08,16,09,03,21.10
2010,08,16,09,04,21.20
2010,08,16,09,05,21.20
2010,08,16,09,06,21.20
2010,08,16,09,07,21.30
2010,08,16,09,08,21.30
2010,08,16,09,09,21.40
2010,08,16,09,10,21.40
2010,08,16,09,11,21.50
2010,08,16,09,12,21.50
2010,08,16,09,13,21.60
2010,08,16,09,14,21.70
2010,08,16,09,15,21.70
2010,08,16,09,16,21.80
2010,08,16,09,17,21.80
2010,08,16,09,18,21.80
2010,08,16,09,19,21.90
2010,08,16,09,20,22.00
2010,08,16,09,21,22.00
2010,08,16,09,22,22.10
2010,08,16,09,23,22.20
2010,08,16,09,24,22.30
2010,08,16,09,25,22.30
2010,08,16,09,26,22.40
2010,08,16,09,27,22.50
2010,08,16,09,28,22.60
2010,08,16,09,29,22.70
2010,08,16,09,30,22.80
2010,08,16,09,31,22.90
2010,08,16,09,32,23.00
2010,08,16,09,33,23.10
2010,08,16,09,34,23.20
2010,08,16,09,35,23.30
2010,08,16,09,36,23.40
2010,08,16,09,37,23.50
2010,08,16,09,38,23.60
2010,08,16,09,39,23.70
2010,08,16,09,40,23.80
2010,08,16,09,41,23.80
2010,08,16,09,42,23.90
2010,08,16,09,43,24.00
2010,08,16,09,44,24.10
2010,08,16,09,45,24.10
2010,08,16,09,46,24.20
2010,08,16,09,47,24.30
2010,08,16,09,48,24.40
2010,08,16,09,49,24.50
2010,08,16,09,50,24.60
2010,08,16,09,51,24.70
2010,08,16,09,52,24.80
2010,08,16,09,53,25.00
2010,08,16,09,54,25.10
2010,08,16,09,55,25.20
2010,08,16,09,56,25.30
2010,08,16,09,57,25.40
2010,08,16,09,58,25.40
2010,08,16,09,59,25.50
2010,08,16,10,00,25.50
2010,08,16,10,01,25.60
2010,08,16,10,02,25.60
2010,08,16,10,03,25.60
2010,08,16,10,04,25.70
2010,08,16,10,05,25.70
2010,08,16,10,06,25.70
2010,08,16,10,07,25.80
2010,08,16,10,08,25.80
2010,08,16,10,09,25.90
2010,08,16,10,10,26.00
2010,08,16,10,11,26.10
2010,08,16,10,12,26.20
2010,08,16,10,13,26.30
2010,08,16,10,14,26.40
2010,08,16,10,15,26.40
2010,08,16,10,16,26.50
2010,08,16,10,17,26.60
2010,08,16,10,18,26.70
2010,08,16,10,19,26.80
2010,08,16,10,20,26.90
2010,08,16,10,21,27.00
2010,08,16,10,22,27.10
2010,08,16,10,23,27.20
2010,08,16,10,24,27.30
2010,08,16,10,25,27.40
2010,08,16,10,26,27.40
2010,08,16,10,27,27.40
2010,08,16,10,28,27.40
2010,08,16,10,29,27.40
2010,08,16,10,30,27.40
2010,08,16,10,31,27.40
2010,08,16,10,32,27.40
2010,08,16,10,33,27.40
2010,08,16,10,34,27.50
2010,08,16,10,35,27.50
2010,08,16,10,36,27.60
2010,08,16,10,37,27.60
2010,08,16,10,38,27.70
2010,08,16,10,39,27.80
2010,08,16,10,40,27.80
2010,08,16,10,41,27.90
2010,08,16,10,42,28.00
2010,08,16,10,43,28.00
2010,08,16,10,44,28.00
2010,08,16,10,45,28.00
2010,08,16,10,46,27.90
2010,08,16,10,47,27.90
2010,08,16,10,48,27.90
2010,08,16,10,49,27.90
2010,08,16,10,50,27.90
2010,08,16,10,51,27.90
2010,08,16,10,52,27.90
2010,08,16,10,53,28.00
2010,08,16,10,54,28.00
2010,08,16,10,55,28.10
2010,08,16,10,56,28.20
2010,08,16,10,57,28.20
2010,08,16,10,58,28.30
2010,08,16,10,59,28.40
2010,08,16,11,00,28.50
2010,08,16,11,01,28.60
2010,08,16,11,02,28.70
2010,08,16,11,03,28.70
2010,08,16,11,04,28.80
2010,08,16,11,05,28.80
2010,08,16,11,06,28.80
2010,08,16,11,07,28.80
2010,08,16,11,08,28.80
2010,08,16,11,09,28.80
2010,08,16,11,10,28.80
2010,08,16,11,11,28.80
2010,08,16,11,12,28.80
2010,08,16,11,13,28.90
2010,08,16,11,14,28.90
2010,08,16,11,15,29.00
2010,08,16,11,16,29.00
2010,08,16,11,17,29.10
2010,08,16,11,18,29.10
2010,08,16,11,19,29.10
2010,08,16,11,20,29.20
2010,08,16,11,21,29.20
2010,08,16,11,22,29.20
2010,08,16,11,23,29.30
2010,08,16,11,24,29.30
2010,08,16,11,25,29.30
2010,08,16,11,26,29.40
2010,08,16,11,27,29.40
2010,08,16,11,28,29.50
2010,08,16,11,29,29.50
2010,08,16,11,30,29.60
2010,08,16,11,31,29.60
2010,08,16,11,32,29.60
2010,08,16,11,33,29.70
2010,08,16,11,34,29.70
2010,08,16,11,35,29.70
2010,08,16,11,36,29.80
2010,08,16,11,37,29.80
2010,08,16,11,38,29.80
2010,08,16,11,39,29.80
2010,08,16,11,40,29.90
2010,08,16,11,41,29.90
2010,08,16,11,42,29.90
2010,08,16,11,43,29.90
2010,08,16,11,44,29.90
2010,08,16,11,45,30.00
2010,08,16,11,46,30.00
2010,08,16,11,47,30.00
2010,08,16,11,48,30.10
2010,08,16,11,49,30.10
2010,08,16,11,50,30.20
2010,08,16,11,51,30.20
2010,08,16,11,52,30.30
2010,08,16,11,53,30.30
2010,08,16,11,54,30.30
2010,08,16,11,55,30.30
2010,08,16,11,56,30.30
2010,08,16,11,57,30.30
2010,08,16,11,58,30.30
2010,08,16,11,59,30.30
2010,08,16,12,00,30.40
2010,08,16,12,01,30.40
2010,08,16,12,02,30.40
2010,08,16,12,03,30.40
2010,08,16,12,04,30.50
2010,08,16,12,05,30.50
2010,08,16,12,06,30.60
2010,08,16,12,07,30.60
2010,08,16,12,08,30.60
2010,08,16,12,09,30.60
2010,08,16,12,10,30.60
2010,08,16,12,11,30.60
2010,08,16,12,12,30.60
2010,08,16,12,13,30.60
2010,08,16,12,14,30.60
2010,08,16,12,15,30.70
2010,08,16,12,16,30.70
2010,08,16,12,17,30.70
2010,08,16,12,18,30.70
2010,08,16,12,19,30.80
2010,08,16,12,20,30.80
2010,08,16,12,21,30.80
2010,08,16,12,22,30.90
2010,08,16,12,23,30.90
2010,08,16,12,24,30.90
2010,08,16,12,25,30.90
2010,08,16,12,26,30.90
2010,08,16,12,27,31.00
2010,08,16,12,28,31.00
2010,08,16,12,29,31.10
2010,08,16,12,30,31.10
2010,08,16,12,31,31.20
2010,08,16,12,32,31.20
2010,08,16,12,33,31.20
2010,08,16,12,34,31.30
2010,08,16,12,35,31.30
2010,08,16,12,36,31.30
2010,08,16,12,37,31.30
2010,08,16,12,38,31.30
2010,08,16,12,39,31.30
2010,08,16,12,40,31.40
2010,08,16,12,41,31.40
2010,08,16,12,42,31.40
2010,08,16,12,43,31.40
2010,08,16,12,44,31.40
2010,08,16,12,45,31.40
2010,08,16,12,46,31.30
2010,08,16,12,47,31.30
2010,08,16,12,48,31.20
2010,08,16,12,49,31.30
2010,08,16,12,50,31.30
2010,08,16,12,51,31.30
2010,08,16,12,52,31.20
2010,08,16,12,53,31.10
2010,08,16,12,54,31.10
2010,08,16,12,55,31.00
2010,08,16,12,56,31.00
2010,08,16,12,57,30.90
2010,08,16,12,58,30.90
2010,08,16,12,59,30.90
2010,08,16,13,00,30.90
2010,08,16,13,01,30.90
2010,08,16,13,02,30.90
2010,08,16,13,03,31.00
2010,08,16,13,04,31.10
2010,08,16,13,05,31.20
2010,08,16,13,06,31.20
2010,08,16,13,07,31.20
2010,08,16,13,08,31.20
2010,08,16,13,09,31.10
2010,08,16,13,10,31.00
2010,08,16,13,11,31.00
2010,08,16,13,12,30.90
2010,08,16,13,13,30.90
2010,08,16,13,14,30.80
2010,08,16,13,15,30.70
2010,08,16,13,16,30.60
2010,08,16,13,17,30.60
2010,08,16,13,18,30.60
2010,08,16,13,19,30.60
2010,08,16,13,20,30.60
2010,08,16,13,21,30.70
2010,08,16,13,22,30.80
2010,08,16,13,23,30.90
2010,08,16,13,24,31.10
2010,08,16,13,25,31.20
2010,08,16,13,26,31.20
2010,08,16,13,27,31.20
2010,08,16,13,28,31.30
2010,08,16,13,29,31.30
2010,08,16,13,30,31.20
2010,08,16,13,31,31.20
2010,08,16,13,32,31.20
2010,08,16,13,33,31.20
2010,08,16,13,34,31.20
2010,08,16,13,35,31.20
2010,08,16,13,36,31.20
2010,08,16,13,37,31.20
2010,08,16,13,38,31.20
2010,08,16,13,39,31.20
2010,08,16,13,40,31.20
2010,08,16,13,41,31.20
2010,08,16,13,42,31.10
2010,08,16,13,43,31.10
2010,08,16,13,44,31.10
2010,08,16,13,45,31.10
2010,08,16,13,46,31.20
2010,08,16,13,47,31.20
2010,08,16,13,48,31.30
2010,08,16,13,49,31.30
2010,08,16,13,50,31.40
2010,08,16,13,51,31.50
2010,08,16,13,52,31.60
2010,08,16,13,53,31.60
2010,08,16,13,54,31.70
2010,08,16,13,55,31.80
2010,08,16,13,56,31.80
2010,08,16,13,57,31.90
2010,08,16,13,58,31.90
2010,08,16,13,59,31.90
2010,08,16,14,00,31.90
2010,08,16,14,01,31.90
2010,08,16,14,02,31.80
2010,08,16,14,03,31.80
2010,08,16,14,04,31.80
2010,08,16,14,05,31.70
2010,08,16,14,06,31.70
2010,08,16,14,07,31.70
2010,08,16,14,08,31.80
2010,08,16,14,09,31.90
2010,08,16,14,10,31.90
2010,08,16,14,11,31.90
2010,08,16,14,12,31.90
2010,08,16,14,13,31.90
2010,08,16,14,14,31.80
2010,08,16,14,15,31.80
2010,08,16,14,16,31.80
2010,08,16,14,17,31.80
2010,08,16,14,18,31.90
2010,08,16,14,19,31.90
2010,08,16,14,20,31.90
2010,08,16,14,21,31.90
2010,08,16,14,22,31.90
2010,08,16,14,23,31.90
2010,08,16,14,24,31.90
2010,08,16,14,25,31.90
2010,08,16,14,26,31.90
2010,08,16,14,27,31.90
2010,08,16,14,28,32.00
2010,08,16,14,29,31.90
2010,08,16,14,30,31.90
2010,08,16,14,31,31.80
2010,08,16,14,32,31.70
2010,08,16,14,33,31.60
2010,08,16,14,34,31.60
2010,08,16,14,35,31.40
2010,08,16,14,36,31.30
2010,08,16,14,37,31.20
2010,08,16,14,38,31.20
2010,08,16,14,39,31.20
2010,08,16,14,40,31.20
2010,08,16,14,41,31.30
2010,08,16,14,42,31.30
2010,08,16,14,43,31.40
2010,08,16,14,44,31.50
2010,08,16,14,45,31.60
2010,08,16,14,46,31.70
2010,08,16,14,47,31.80
2010,08,16,14,48,31.80
2010,08,16,14,49,31.80
2010,08,16,14,50,31.80
2010,08,16,14,51,31.90
2010,08,16,14,52,31.90
2010,08,16,14,53,32.00
2010,08,16,14,54,32.10
2010,08,16,14,55,32.10
2010,08,16,14,56,32.20
2010,08,16,14,57,32.20
2010,08,16,14,58,32.30
2010,08,16,14,59,32.30
2010,08,16,15,00,32.30
2010,08,16,15,01,32.30
2010,08,16,15,02,32.20
2010,08,16,15,03,32.20
2010,08,16,15,04,32.20
2010,08,16,15,05,32.20
2010,08,16,15,06,32.20
2010,08,16,15,07,32.20
2010,08,16,15,08,32.10
2010,08,16,15,09,32.00
2010,08,16,15,10,32.00
2010,08,16,15,11,31.90
2010,08,16,15,12,31.90
2010,08,16,15,13,31.90
2010,08,16,15,14,32.00
2010,08,16,15,15,32.10
2010,08,16,15,16,32.10
2010,08,16,15,17,32.10
2010,08,16,15,18,32.10
2010,08,16,15,19,32.20
2010,08,16,15,20,32.20
2010,08,16,15,21,32.20
2010,08,16,15,22,32.30
2010,08,16,15,23,32.30
2010,08,16,15,24,32.40
2010,08,16,15,25,32.40
2010,08,16,15,26,32.50
2010,08,16,15,27,32.50
2010,08,16,15,28,32.40
2010,08,16,15,29,32.50
2010,08,16,15,30,32.50
2010,08,16,15,31,32.50
2010,08,16,15,32,32.40
2010,08,16,15,33,32.40
2010,08,16,15,34,32.30
2010,08,16,15,35,32.30
2010,08,16,15,36,32.30
2010,08,16,15,37,32.30
2010,08,16,15,38,32.30
2010,08,16,15,39,32.40
2010,08,16,15,40,32.40
2010,08,16,15,41,32.50
2010,08,16,15,42,32.50
2010,08,16,15,43,32.50
2010,08,16,15,44,32.50
2010,08,16,15,45,32.50
2010,08,16,15,46,32.50
2010,08,16,15,47,32.50
2010,08,16,15,48,32.50
2010,08,16,15,49,32.40
2010,08,16,15,50,32.40
2010,08,16,15,51,32.40
2010,08,16,15,52,32.40
2010,08,16,15,53,32.30
2010,08,16,15,54,32.30
2010,08,16,15,55,32.30
2010,08,16,15,56,32.30
2010,08,16,15,57,32.30
2010,08,16,15,58,32.30
2010,08,16,15,59,32.30
2010,08,16,16,00,32.30
2010,08,16,16,01,32.30
2010,08,16,16,02,32.20
2010,08,16,16,03,32.10
2010,08,16,16,04,32.00
2010,08,16,16,05,31.90
2010,08,16,16,06,31.80
2010,08,16,16,07,31.70
2010,08,16,16,08,31.60
2010,08,16,16,09,31.60
2010,08,16,16,10,31.50
2010,08,16,16,11,31.50
2010,08,16,16,12,31.50
2010,08,16,16,13,31.50
2010,08,16,16,14,31.50
2010,08,16,16,15,31.60
2010,08,16,16,16,31.60
2010,08,16,16,17,31.70
2010,08,16,16,18,31.60
2010,08,16,16,19,31.50
2010,08,16,16,20,31.40
2010,08,16,16,21,31.40
2010,08,16,16,22,31.30
2010,08,16,16,23,31.40
2010,08,16,16,24,31.40
2010,08,16,16,25,31.50
2010,08,16,16,26,31.60
2010,08,16,16,27,31.70
2010,08,16,16,28,31.70
2010,08,16,16,29,31.80
2010,08,16,16,30,31.80
2010,08,16,16,31,31.80
2010,08,16,16,32,31.90
2010,08,16,16,33,31.90
2010,08,16,16,34,31.80
2010,08,16,16,35,31.80
2010,08,16,16,36,31.70
2010,08,16,16,37,31.70
2010,08,16,16,38,31.70
2010,08,16,16,39,31.70
2010,08,16,16,40,31.70
2010,08,16,16,41,31.70
2010,08,16,16,42,31.70
2010,08,16,16,43,31.80
2010,08,16,16,44,31.80
2010,08,16,16,45,31.80
2010,08,16,16,46,31.80
2010,08,16,16,47,31.70
2010,08,16,16,48,31.70
2010,08,16,16,49,31.70
2010,08,16,16,50,31.60
2010,08,16,16,51,31.60
2010,08,16,16,52,31.60
2010,08,16,16,53,31.60
2010,08,16,16,54,31.60
2010,08,16,16,55,31.70
2010,08,16,16,56,31.70
2010,08,16,16,57,31.70
2010,08,16,16,58,31.60
2010,08,16,16,59,31.50
2010,08,16,17,00,31.50
2010,08,16,17,01,31.40
2010,08,16,17,02,31.40
2010,08,16,17,03,31.30
2010,08,16,17,04,31.30
2010,08,16,17,05,31.30
2010,08,16,17,06,31.20
2010,08,16,17,07,31.20
2010,08,16,17,08,31.20
2010,08,16,17,09,31.20
2010,08,16,17,10,31.10
2010,08,16,17,11,31.00
2010,08,16,17,12,30.90
2010,08,16,17,13,30.90
2010,08,16,17,14,30.80
2010,08,16,17,15,30.80
2010,08,16,17,16,30.70
2010,08,16,17,17,30.60
2010,08,16,17,18,30.40
2010,08,16,17,19,30.40